Station Historical Data
Daily Summary for August 2, 2017 Units:  English    Metric   Both
« Previous Day
Next Day »
Daily Weekly Monthly Yearly Custom
  High: Low: Average:
Temperature: 94.7 °F 76.2 °F 83.7 °F
Dew Point: 62.8 °F 53.1 °F 57.7 °F
Humidity: 55 % 25 % 42 %
Wind Speed: 14.0 mph 0.0 mph 2.3 mph
Wind Gust: 15.0 mph - -
Wind:- - SSE
Pressure: 29.91 in 29.83 in -
Precipitation: 0.00 in    
Historical Graphs
 
 
Tabular Data for August 2, 2017
Time Temperature Dew Point Pressure Wind Wind Speed Wind Gust Humidity Rainfall Rate (Hourly) solar
00:00 79.1 °F 60.0 °F 29.84 in Calm   8.0 mph 52 % 0.00 in 0.00 W/m2
00:05 79.1 °F 60.0 °F 29.84 in ESE 2.0 mph 12.0 mph 52 % 0.00 in 0.00 W/m2
00:10 79.2 °F 60.1 °F 29.84 in ESE 7.0 mph 11.0 mph 52 % 0.00 in 0.00 W/m2
00:15 79.1 °F 60.0 °F 29.84 in ESE 2.0 mph 12.0 mph 52 % 0.00 in 0.00 W/m2
00:20 79.1 °F 60.0 °F 29.84 in ESE 6.0 mph 13.0 mph 52 % 0.00 in 0.00 W/m2
00:25 79.1 °F 60.0 °F 29.83 in ESE 5.0 mph 12.0 mph 52 % 0.00 in 0.00 W/m2
00:30 79.1 °F 60.0 °F 29.83 in ESE 1.0 mph 13.0 mph 52 % 0.00 in 0.00 W/m2
00:34 79.1 °F 60.0 °F 29.83 in ESE 1.0 mph 11.0 mph 52 % 0.00 in 0.00 W/m2
00:36 79.1 °F 60.0 °F 29.83 in Calm   11.0 mph 52 % 0.00 in 0.00 W/m2
00:41 79.1 °F 60.0 °F 29.83 in ESE 5.0 mph 15.0 mph 52 % 0.00 in 0.00 W/m2
00:46 79.2 °F 60.1 °F 29.83 in Calm   14.0 mph 52 % 0.00 in 0.00 W/m2
00:51 79.2 °F 60.1 °F 29.83 in East 1.0 mph 13.0 mph 52 % 0.00 in 0.00 W/m2
00:56 79.3 °F 60.2 °F 29.83 in Calm   15.0 mph 52 % 0.00 in 0.00 W/m2
01:01 79.4 °F 60.3 °F 29.83 in East 2.0 mph 12.0 mph 52 % 0.00 in 0.00 W/m2
01:06 79.4 °F 60.3 °F 29.83 in ESE 6.0 mph 14.0 mph 52 % 0.00 in 0.00 W/m2
01:11 79.5 °F 59.8 °F 29.83 in ESE 14.0 mph 14.0 mph 51 % 0.00 in 0.00 W/m2
01:16 79.6 °F 59.9 °F 29.83 in ESE 6.0 mph 6.0 mph 51 % 0.00 in 0.00 W/m2
01:21 79.6 °F 59.9 °F 29.83 in Calm   1.0 mph 51 % 0.00 in 0.00 W/m2
01:26 79.7 °F 60.0 °F 29.83 in ESE 8.0 mph 8.0 mph 51 % 0.00 in 0.00 W/m2
01:31 79.7 °F 60.0 °F 29.83 in ESE 5.0 mph 8.0 mph 51 % 0.00 in 0.00 W/m2
01:36 79.8 °F 60.1 °F 29.83 in ESE 9.0 mph 11.0 mph 51 % 0.00 in 0.00 W/m2
01:41 79.8 °F 60.1 °F 29.83 in ESE 2.0 mph 8.0 mph 51 % 0.00 in 0.00 W/m2
01:46 79.8 °F 60.1 °F 29.83 in Calm     51 % 0.00 in 0.00 W/m2
01:51 79.8 °F 60.1 °F 29.83 in ESE 6.0 mph 11.0 mph 51 % 0.00 in 0.00 W/m2
01:56 79.8 °F 60.1 °F 29.83 in Calm   4.0 mph 51 % 0.00 in 0.00 W/m2
02:01 79.8 °F 60.1 °F 29.83 in Calm   7.0 mph 51 % 0.00 in 0.00 W/m2
02:06 79.8 °F 60.1 °F 29.83 in ESE 4.0 mph 4.0 mph 51 % 0.00 in 0.00 W/m2
02:11 79.7 °F 60.0 °F 29.84 in Calm   2.0 mph 51 % 0.00 in 0.00 W/m2
02:16 79.7 °F 60.0 °F 29.84 in Calm   8.0 mph 51 % 0.00 in 0.00 W/m2
02:21 79.6 °F 59.9 °F 29.84 in Calm   1.0 mph 51 % 0.00 in 0.00 W/m2
02:26 79.6 °F 59.9 °F 29.84 in ESE 5.0 mph 7.0 mph 51 % 0.00 in 0.00 W/m2
02:31 79.5 °F 59.8 °F 29.84 in ESE 6.0 mph 6.0 mph 51 % 0.00 in 0.00 W/m2
02:36 79.4 °F 59.7 °F 29.83 in Calm   4.0 mph 51 % 0.00 in 0.00 W/m2
02:41 79.4 °F 59.7 °F 29.83 in ESE 6.0 mph 9.0 mph 51 % 0.00 in 0.00 W/m2
02:46 79.4 °F 59.7 °F 29.83 in ESE 5.0 mph 8.0 mph 51 % 0.00 in 0.00 W/m2
02:51 79.3 °F 59.1 °F 29.83 in ESE 9.0 mph 9.0 mph 50 % 0.00 in 0.00 W/m2
02:56 79.3 °F 59.1 °F 29.83 in ESE 4.0 mph 4.0 mph 50 % 0.00 in 0.00 W/m2
03:01 79.3 °F 59.1 °F 29.84 in Calm   8.0 mph 50 % 0.00 in 0.00 W/m2
03:06 79.3 °F 59.1 °F 29.84 in Calm   2.0 mph 50 % 0.00 in 0.00 W/m2
03:11 79.3 °F 59.1 °F 29.84 in Calm   6.0 mph 50 % 0.00 in 0.00 W/m2
03:16 79.3 °F 59.1 °F 29.84 in ESE 6.0 mph 7.0 mph 50 % 0.00 in 0.00 W/m2
03:21 79.2 °F 59.0 °F 29.84 in ESE 5.0 mph 8.0 mph 50 % 0.00 in 0.00 W/m2
03:26 79.2 °F 59.5 °F 29.85 in Calm   4.0 mph 51 % 0.00 in 0.00 W/m2
03:31 79.1 °F 59.4 °F 29.85 in ESE 5.0 mph 7.0 mph 51 % 0.00 in 0.00 W/m2
03:36 78.9 °F 59.2 °F 29.85 in Calm   1.0 mph 51 % 0.00 in 0.00 W/m2
03:41 78.8 °F 59.2 °F 29.85 in ESE 8.0 mph 8.0 mph 51 % 0.00 in 0.00 W/m2
03:46 78.7 °F 59.1 °F 29.85 in ESE 1.0 mph 7.0 mph 51 % 0.00 in 0.00 W/m2
03:51 78.5 °F 58.9 °F 29.85 in ESE 4.0 mph 11.0 mph 51 % 0.00 in 0.00 W/m2
03:56 78.4 °F 58.8 °F 29.85 in Calm   7.0 mph 51 % 0.00 in 0.00 W/m2
04:01 78.3 °F 58.7 °F 29.84 in ESE 1.0 mph 1.0 mph 51 % 0.00 in 0.00 W/m2
04:06 78.2 °F 58.6 °F 29.84 in ESE 2.0 mph 7.0 mph 51 % 0.00 in 0.00 W/m2
04:11 78.1 °F 59.1 °F 29.84 in Calm   6.0 mph 52 % 0.00 in 0.00 W/m2
04:16 78.0 °F 58.4 °F 29.84 in ESE 4.0 mph 5.0 mph 51 % 0.00 in 0.00 W/m2
04:21 77.9 °F 58.3 °F 29.84 in ESE 4.0 mph 11.0 mph 51 % 0.00 in 0.00 W/m2
04:26 77.8 °F 58.2 °F 29.84 in ESE 5.0 mph 5.0 mph 51 % 0.00 in 0.00 W/m2
04:31 77.6 °F 58.1 °F 29.84 in ESE 6.0 mph 13.0 mph 51 % 0.00 in 0.00 W/m2
04:36 77.6 °F 58.6 °F 29.83 in ESE 1.0 mph 15.0 mph 52 % 0.00 in 0.00 W/m2
04:41 77.5 °F 58.0 °F 29.83 in ESE 7.0 mph 12.0 mph 51 % 0.00 in 0.00 W/m2
04:46 77.4 °F 57.9 °F 29.83 in Calm   12.0 mph 51 % 0.00 in 0.00 W/m2
04:51 77.4 °F 57.9 °F 29.84 in Calm   12.0 mph 51 % 0.00 in 0.00 W/m2
04:57 77.3 °F 57.8 °F 29.84 in ESE 2.0 mph 13.0 mph 51 % 0.00 in 0.00 W/m2
05:02 77.3 °F 57.8 °F 29.84 in ESE 11.0 mph 13.0 mph 51 % 0.00 in 0.00 W/m2
05:07 77.2 °F 57.1 °F 29.84 in Calm   13.0 mph 50 % 0.00 in 0.00 W/m2
05:12 77.2 °F 57.7 °F 29.84 in East 5.0 mph 11.0 mph 51 % 0.00 in 0.00 W/m2
05:17 77.2 °F 57.1 °F 29.84 in East 5.0 mph 13.0 mph 50 % 0.00 in 0.00 W/m2
05:22 77.1 °F 57.0 °F 29.84 in Calm   9.0 mph 50 % 0.00 in 0.00 W/m2
05:27 77.2 °F 57.1 °F 29.84 in Calm   12.0 mph 50 % 0.00 in 0.00 W/m2
05:32 77.1 °F 57.0 °F 29.84 in East 7.0 mph 15.0 mph 50 % 0.00 in 0.00 W/m2
05:37 77.1 °F 57.0 °F 29.84 in Calm   7.0 mph 50 % 0.00 in 0.00 W/m2
05:42 77.0 °F 57.0 °F 29.84 in ESE 2.0 mph 6.0 mph 50 % 0.00 in 0.00 W/m2
05:47 77.0 °F 57.0 °F 29.84 in Calm   6.0 mph 50 % 0.00 in 0.00 W/m2
05:52 76.9 °F 56.9 °F 29.84 in Calm   7.0 mph 50 % 0.00 in 0.00 W/m2
05:57 76.9 °F 56.9 °F 29.85 in ESE 1.0 mph 5.0 mph 50 % 0.00 in 0.00 W/m2
06:02 76.8 °F 56.8 °F 29.85 in ESE 1.0 mph 5.0 mph 50 % 0.00 in 0.00 W/m2
06:07 76.7 °F 56.7 °F 29.85 in Calm   6.0 mph 50 % 0.00 in 5.00 W/m2
06:12 76.6 °F 56.6 °F 29.85 in ESE 4.0 mph 5.0 mph 50 % 0.00 in 7.00 W/m2
06:18 76.6 °F 56.6 °F 29.85 in East 1.0 mph 6.0 mph 50 % 0.00 in 11.00 W/m2
06:23 76.5 °F 56.5 °F 29.85 in Calm   4.0 mph 50 % 0.00 in 14.00 W/m2
06:28 76.5 °F 56.5 °F 29.85 in ESE 1.0 mph 5.0 mph 50 % 0.00 in 19.00 W/m2
06:33 76.4 °F 56.4 °F 29.85 in ESE 1.0 mph 6.0 mph 50 % 0.00 in 25.00 W/m2
06:38 76.4 °F 56.4 °F 29.85 in ESE 5.0 mph 7.0 mph 50 % 0.00 in 33.00 W/m2
06:43 76.4 °F 56.4 °F 29.85 in ESE 1.0 mph 6.0 mph 50 % 0.00 in 42.00 W/m2
06:48 76.4 °F 56.4 °F 29.85 in ESE 2.0 mph 11.0 mph 50 % 0.00 in 47.00 W/m2
06:53 76.3 °F 56.3 °F 29.85 in ESE 4.0 mph 7.0 mph 50 % 0.00 in 51.00 W/m2
06:58 76.3 °F 56.9 °F 29.85 in ESE 2.0 mph 6.0 mph 51 % 0.00 in 49.00 W/m2
07:03 76.3 °F 56.9 °F 29.86 in ESE 2.0 mph 8.0 mph 51 % 0.00 in 67.00 W/m2
07:08 76.3 °F 56.9 °F 29.86 in ESE 6.0 mph 8.0 mph 51 % 0.00 in 53.00 W/m2
07:13 76.3 °F 56.9 °F 29.86 in ESE 4.0 mph 8.0 mph 51 % 0.00 in 44.00 W/m2
07:18 76.3 °F 56.9 °F 29.86 in ESE 9.0 mph 9.0 mph 51 % 0.00 in 107.00 W/m2
07:23 76.3 °F 56.9 °F 29.86 in ESE 2.0 mph 9.0 mph 51 % 0.00 in 58.00 W/m2
07:28 76.3 °F 57.4 °F 29.86 in ESE 2.0 mph 9.0 mph 52 % 0.00 in 156.00 W/m2
07:33 76.3 °F 57.4 °F 29.86 in Calm   7.0 mph 52 % 0.00 in 174.00 W/m2
07:38 76.3 °F 57.4 °F 29.86 in ESE 4.0 mph 9.0 mph 52 % 0.00 in 192.00 W/m2
07:43 76.2 °F 57.8 °F 29.86 in ESE 2.0 mph 9.0 mph 53 % 0.00 in 209.00 W/m2
07:48 76.3 °F 57.9 °F 29.86 in ESE 1.0 mph 15.0 mph 53 % 0.00 in 227.00 W/m2
07:53 76.3 °F 57.9 °F 29.86 in ESE 5.0 mph 12.0 mph 53 % 0.00 in 246.00 W/m2
07:58 76.4 °F 58.0 °F 29.86 in SE 6.0 mph 12.0 mph 53 % 0.00 in 257.00 W/m2
08:03 76.5 °F 58.1 °F 29.87 in SE 7.0 mph 9.0 mph 53 % 0.00 in 276.00 W/m2
08:08 76.6 °F 58.2 °F 29.87 in Calm   11.0 mph 53 % 0.00 in 288.00 W/m2
08:13 76.6 °F 58.2 °F 29.87 in SE 2.0 mph 9.0 mph 53 % 0.00 in 308.00 W/m2
08:18 76.8 °F 58.4 °F 29.87 in SE 4.0 mph 8.0 mph 53 % 0.00 in 323.00 W/m2
08:23 76.9 °F 59.0 °F 29.87 in SE 4.0 mph 7.0 mph 54 % 0.00 in 343.00 W/m2
08:28 77.0 °F 59.1 °F 29.87 in SE 5.0 mph 7.0 mph 54 % 0.00 in 360.00 W/m2
08:33 77.2 °F 59.3 °F 29.87 in SE 5.0 mph 6.0 mph 54 % 0.00 in 374.00 W/m2
08:38 77.3 °F 59.9 °F 29.87 in SE 5.0 mph 8.0 mph 55 % 0.00 in 396.00 W/m2
08:43 77.5 °F 60.1 °F 29.87 in SE 4.0 mph 7.0 mph 55 % 0.00 in 418.00 W/m2
08:48 77.7 °F 60.3 °F 29.87 in SE 8.0 mph 8.0 mph 55 % 0.00 in 436.00 W/m2
08:53 77.8 °F 59.8 °F 29.88 in SE 2.0 mph 9.0 mph 54 % 0.00 in 438.00 W/m2
08:58 78.0 °F 60.0 °F 29.88 in SE 4.0 mph 8.0 mph 54 % 0.00 in 445.00 W/m2
09:03 78.3 °F 60.3 °F 29.88 in SE 4.0 mph 8.0 mph 54 % 0.00 in 459.00 W/m2
09:08 78.5 °F 59.4 °F 29.88 in SE 2.0 mph 9.0 mph 52 % 0.00 in 475.00 W/m2
09:13 78.8 °F 60.2 °F 29.88 in Calm   9.0 mph 53 % 0.00 in 489.00 W/m2
09:15 78.9 °F 59.8 °F 29.88 in Calm   9.0 mph 52 % 0.00 in 492.00 W/m2
09:20 79.2 °F 60.6 °F 29.88 in SE 6.0 mph 9.0 mph 53 % 0.00 in 508.00 W/m2
09:25 79.4 °F 59.7 °F 29.88 in SE 5.0 mph 9.0 mph 51 % 0.00 in 522.00 W/m2
09:30 79.7 °F 60.5 °F 29.88 in Calm   7.0 mph 52 % 0.00 in 533.00 W/m2
09:35 80.0 °F 60.8 °F 29.88 in Calm   5.0 mph 52 % 0.00 in 548.00 W/m2
09:40 80.3 °F 61.1 °F 29.88 in Calm   6.0 mph 52 % 0.00 in 563.00 W/m2
09:45 80.6 °F 60.8 °F 29.88 in Calm   5.0 mph 51 % 0.00 in 578.00 W/m2
09:50 81.0 °F 60.6 °F 29.88 in Calm   7.0 mph 50 % 0.00 in 591.00 W/m2
09:55 81.3 °F 60.3 °F 29.88 in SE 5.0 mph 6.0 mph 49 % 0.00 in 605.00 W/m2
10:00 81.7 °F 61.8 °F 29.88 in Calm   6.0 mph 51 % 0.00 in 619.00 W/m2
10:05 81.9 °F 62.6 °F 29.88 in Calm   7.0 mph 52 % 0.00 in 631.00 W/m2
10:10 82.3 °F 60.7 °F 29.88 in SSE 4.0 mph 8.0 mph 48 % 0.00 in 643.00 W/m2
10:15 82.5 °F 60.3 °F 29.88 in SSE 7.0 mph 9.0 mph 47 % 0.00 in 656.00 W/m2
10:20 82.9 °F 60.0 °F 29.88 in SSE 2.0 mph 11.0 mph 46 % 0.00 in 666.00 W/m2
10:25 83.4 °F 60.5 °F 29.88 in South 6.0 mph 9.0 mph 46 % 0.00 in 677.00 W/m2
10:30 83.8 °F 61.4 °F 29.88 in Calm   7.0 mph 47 % 0.00 in 689.00 W/m2
10:35 84.3 °F 62.5 °F 29.88 in Calm   6.0 mph 48 % 0.00 in 701.00 W/m2
10:40 84.6 °F 62.8 °F 29.88 in South 13.0 mph 13.0 mph 48 % 0.00 in 712.00 W/m2
10:45 84.9 °F 61.8 °F 29.88 in Calm   11.0 mph 46 % 0.00 in 721.00 W/m2
10:50 85.2 °F 61.5 °F 29.88 in Calm   9.0 mph 45 % 0.00 in 735.00 W/m2
10:56 85.6 °F 61.2 °F 29.88 in Calm   7.0 mph 44 % 0.00 in 742.00 W/m2
11:01 85.9 °F 61.5 °F 29.88 in SSW 6.0 mph 8.0 mph 44 % 0.00 in 751.00 W/m2
11:06 86.3 °F 61.2 °F 29.88 in Calm   7.0 mph 43 % 0.00 in 758.00 W/m2
11:11 86.6 °F 61.5 °F 29.88 in SSW 5.0 mph 9.0 mph 43 % 0.00 in 768.00 W/m2
11:16 87.0 °F 61.8 °F 29.88 in Calm   5.0 mph 43 % 0.00 in 777.00 W/m2
11:21 87.2 °F 62.0 °F 29.88 in Calm   2.0 mph 43 % 0.00 in 786.00 W/m2
11:26 87.4 °F 62.2 °F 29.87 in South 3.0 mph 6.0 mph 43 % 0.00 in 796.00 W/m2
11:31 87.7 °F 61.8 °F 29.87 in Calm   4.0 mph 42 % 0.00 in 803.00 W/m2
11:36 88.0 °F 61.4 °F 29.87 in Calm   1.0 mph 41 % 0.00 in 809.00 W/m2
11:41 88.3 °F 62.3 °F 29.87 in Calm   8.0 mph 42 % 0.00 in 817.00 W/m2
11:46 88.7 °F 61.3 °F 29.87 in Calm   7.0 mph 40 % 0.00 in 821.00 W/m2
11:51 89.1 °F 61.7 °F 29.87 in SSW 6.0 mph 6.0 mph 40 % 0.00 in 828.00 W/m2
11:56 89.4 °F 60.5 °F 29.87 in Calm   7.0 mph 38 % 0.00 in 833.00 W/m2
12:01 89.7 °F 60.7 °F 29.87 in Calm   2.0 mph 38 % 0.00 in 837.00 W/m2
12:06 89.9 °F 60.9 °F 29.87 in Calm   6.0 mph 38 % 0.00 in 840.00 W/m2
12:11 90.1 °F 61.1 °F 29.87 in SW 4.0 mph 6.0 mph 38 % 0.00 in 846.00 W/m2
12:16 90.4 °F 59.8 °F 29.87 in SW 2.0 mph 10.0 mph 36 % 0.00 in 847.00 W/m2
12:21 90.9 °F 60.3 °F 29.87 in Calm   8.0 mph 36 % 0.00 in 851.00 W/m2
12:26 91.3 °F 60.6 °F 29.87 in Calm   3.0 mph 36 % 0.00 in 860.00 W/m2
12:31 91.7 °F 61.8 °F 29.87 in Calm   7.0 mph 37 % 0.00 in 863.00 W/m2
12:36 91.8 °F 60.3 °F 29.87 in Calm   3.0 mph 35 % 0.00 in 867.00 W/m2
12:41 91.9 °F 59.5 °F 29.87 in Calm   5.0 mph 34 % 0.00 in 867.00 W/m2
12:46 91.9 °F 60.4 °F 29.86 in Calm   5.0 mph 35 % 0.00 in 872.00 W/m2
12:51 92.1 °F 58.9 °F 29.86 in Calm   2.0 mph 33 % 0.00 in 877.00 W/m2
12:56 92.4 °F 58.3 °F 29.86 in Calm   8.0 mph 32 % 0.00 in 877.00 W/m2
13:01 92.6 °F 58.5 °F 29.86 in SW 2.0 mph 7.0 mph 32 % 0.00 in 877.00 W/m2
13:06 92.9 °F 56.0 °F 29.86 in Calm   3.0 mph 29 % 0.00 in 882.00 W/m2
13:11 93.0 °F 57.0 °F 29.86 in Calm   2.0 mph 30 % 0.00 in 881.00 W/m2
13:16 93.2 °F 55.3 °F 29.86 in SW 3.0 mph 6.0 mph 28 % 0.00 in 877.00 W/m2
13:21 93.7 °F 55.7 °F 29.86 in SW 1.0 mph 5.0 mph 28 % 0.00 in 874.00 W/m2
13:26 94.2 °F 55.1 °F 29.86 in Calm   6.0 mph 27 % 0.00 in 881.00 W/m2
13:31 94.6 °F 54.4 °F 29.86 in SW 3.0 mph 8.0 mph 26 % 0.00 in 874.00 W/m2
13:36 94.7 °F 54.5 °F 29.86 in Calm     26 % 0.00 in 870.00 W/m2
13:41 94.3 °F 54.2 °F 29.86 in Calm   5.0 mph 26 % 0.00 in 870.00 W/m2
13:46 94.0 °F 53.9 °F 29.85 in WSW 1.0 mph 3.0 mph 26 % 0.00 in 865.00 W/m2
13:51 94.0 °F 56.0 °F 29.85 in WSW 1.0 mph 3.0 mph 28 % 0.00 in 863.00 W/m2
13:56 93.8 °F 55.8 °F 29.85 in Calm     28 % 0.00 in 858.00 W/m2
14:01 93.6 °F 56.6 °F 29.85 in Calm   3.0 mph 29 % 0.00 in 854.00 W/m2
14:02 93.6 °F 54.6 °F 29.85 in Calm   4.0 mph 27 % 0.00 in 853.00 W/m2
14:07 93.3 °F 55.4 °F 29.85 in Calm   4.0 mph 28 % 0.00 in 849.00 W/m2
14:12 93.3 °F 55.4 °F 29.85 in Calm   3.0 mph 28 % 0.00 in 846.00 W/m2
14:17 93.3 °F 56.3 °F 29.85 in Calm     29 % 0.00 in 840.00 W/m2
14:22 93.5 °F 55.5 °F 29.85 in Calm   1.0 mph 28 % 0.00 in 840.00 W/m2
14:27 93.5 °F 55.5 °F 29.85 in Calm   1.0 mph 28 % 0.00 in 835.00 W/m2
14:32 93.6 °F 56.6 °F 29.85 in West 1.0 mph 5.0 mph 29 % 0.00 in 773.00 W/m2
14:37 93.5 °F 55.5 °F 29.84 in Calm   2.0 mph 28 % 0.00 in 640.00 W/m2
14:43 93.5 °F 55.5 °F 29.84 in Calm   3.0 mph 28 % 0.00 in 791.00 W/m2
14:48 93.6 °F 56.6 °F 29.84 in Calm   5.0 mph 29 % 0.00 in 809.00 W/m2
14:53 93.7 °F 55.7 °F 29.84 in Calm     28 % 0.00 in 810.00 W/m2
14:58 93.7 °F 54.7 °F 29.84 in WNW 2.0 mph 3.0 mph 27 % 0.00 in 788.00 W/m2
15:03 93.7 °F 55.7 °F 29.83 in Calm     28 % 0.00 in 775.00 W/m2
15:08 93.7 °F 56.7 °F 29.83 in Calm   2.0 mph 29 % 0.00 in 765.00 W/m2
15:13 93.7 °F 55.7 °F 29.83 in Calm   4.0 mph 28 % 0.00 in 726.00 W/m2
15:18 93.7 °F 55.7 °F 29.83 in Calm   5.0 mph 28 % 0.00 in 745.00 W/m2
15:23 93.7 °F 54.7 °F 29.83 in WNW 2.0 mph 7.0 mph 27 % 0.00 in 735.00 W/m2
15:28 93.7 °F 55.7 °F 29.83 in Calm   5.0 mph 28 % 0.00 in 728.00 W/m2
15:33 93.8 °F 55.8 °F 29.83 in West 3.0 mph 7.0 mph 28 % 0.00 in 714.00 W/m2
15:38 94.0 °F 56.0 °F 29.83 in Calm   5.0 mph 28 % 0.00 in 705.00 W/m2
15:43 94.0 °F 55.0 °F 29.83 in WSW 1.0 mph 2.0 mph 27 % 0.00 in 691.00 W/m2
15:48 94.1 °F 55.0 °F 29.83 in SW 1.0 mph 7.0 mph 27 % 0.00 in 680.00 W/m2
15:53 94.2 °F 57.1 °F 29.83 in SW 5.0 mph 5.0 mph 29 % 0.00 in 670.00 W/m2
15:58 94.3 °F 55.2 °F 29.83 in WSW 1.0 mph 6.0 mph 27 % 0.00 in 661.00 W/m2
16:03 94.3 °F 55.2 °F 29.83 in Calm   1.0 mph 27 % 0.00 in 645.00 W/m2
16:08 94.3 °F 53.1 °F 29.83 in Calm   8.0 mph 25 % 0.00 in 633.00 W/m2
16:13 94.3 °F 53.1 °F 29.83 in Calm   11.0 mph 25 % 0.00 in 621.00 W/m2
16:18 94.3 °F 54.2 °F 29.84 in Calm   11.0 mph 26 % 0.00 in 606.00 W/m2
16:23 94.1 °F 54.0 °F 29.84 in WSW 6.0 mph 10.0 mph 26 % 0.00 in 591.00 W/m2
16:28 93.8 °F 54.8 °F 29.84 in Calm   7.0 mph 27 % 0.00 in 580.00 W/m2
16:33 93.7 °F 54.7 °F 29.84 in Calm   5.0 mph 27 % 0.00 in 566.00 W/m2
16:38 93.6 °F 55.6 °F 29.84 in SSW 4.0 mph 7.0 mph 28 % 0.00 in 554.00 W/m2
16:43 93.6 °F 55.6 °F 29.84 in SSW 1.0 mph 5.0 mph 28 % 0.00 in 538.00 W/m2
16:49 93.4 °F 54.5 °F 29.84 in SSW 1.0 mph 9.0 mph 27 % 0.00 in 522.00 W/m2
16:54 93.3 °F 55.4 °F 29.83 in SW 5.0 mph 9.0 mph 28 % 0.00 in 506.00 W/m2
16:59 93.0 °F 55.1 °F 29.83 in Calm   5.0 mph 28 % 0.00 in 492.00 W/m2
17:04 92.9 °F 56.0 °F 29.83 in Calm   2.0 mph 29 % 0.00 in 473.00 W/m2
17:09 92.8 °F 57.8 °F 29.83 in Calm   2.0 mph 31 % 0.00 in 461.00 W/m2
17:14 92.6 °F 58.5 °F 29.83 in SW 1.0 mph 6.0 mph 32 % 0.00 in 448.00 W/m2
17:19 92.5 °F 55.7 °F 29.83 in SW 4.0 mph 6.0 mph 29 % 0.00 in 434.00 W/m2
17:24 92.4 °F 58.3 °F 29.83 in Calm     32 % 0.00 in 418.00 W/m2
17:29 92.1 °F 58.0 °F 29.83 in WSW 4.0 mph 5.0 mph 32 % 0.00 in 401.00 W/m2
17:34 91.8 °F 56.0 °F 29.83 in WSW 2.0 mph 6.0 mph 30 % 0.00 in 385.00 W/m2
17:39 91.7 °F 56.8 °F 29.83 in Calm   7.0 mph 31 % 0.00 in 366.00 W/m2
17:44 91.6 °F 56.7 °F 29.84 in WSW 1.0 mph 7.0 mph 31 % 0.00 in 359.00 W/m2
17:49 91.5 °F 58.4 °F 29.84 in Calm   8.0 mph 33 % 0.00 in 343.00 W/m2
17:54 91.4 °F 57.4 °F 29.84 in Calm   6.0 mph 32 % 0.00 in 329.00 W/m2
17:59 91.2 °F 58.1 °F 29.84 in Calm   7.0 mph 33 % 0.00 in 311.00 W/m2
18:04 91.0 °F 57.1 °F 29.84 in SSW 5.0 mph 10.0 mph 32 % 0.00 in 308.00 W/m2
18:09 90.9 °F 56.1 °F 29.84 in SW 7.0 mph 10.0 mph 31 % 0.00 in 323.00 W/m2
18:14 90.9 °F 57.0 °F 29.85 in Calm   11.0 mph 32 % 0.00 in 315.00 W/m2
18:19 90.8 °F 57.8 °F 29.85 in Calm   7.0 mph 33 % 0.00 in 260.00 W/m2
18:24 90.6 °F 58.4 °F 29.85 in Calm   8.0 mph 34 % 0.00 in 255.00 W/m2
18:29 90.5 °F 57.5 °F 29.85 in SSW 3.0 mph 10.0 mph 33 % 0.00 in 151.00 W/m2
18:34 90.3 °F 57.3 °F 29.85 in SSW 5.0 mph 10.0 mph 33 % 0.00 in 172.00 W/m2
18:39 90.2 °F 56.4 °F 29.85 in South 10.0 mph 10.0 mph 32 % 0.00 in 142.00 W/m2
18:44 90.0 °F 57.9 °F 29.85 in South 5.0 mph 12.0 mph 34 % 0.00 in 171.00 W/m2
18:49 89.8 °F 56.9 °F 29.85 in SSW 7.0 mph 9.0 mph 33 % 0.00 in 158.00 W/m2
18:54 89.4 °F 57.4 °F 29.85 in South 3.0 mph 13.0 mph 34 % 0.00 in 144.00 W/m2
18:59 88.9 °F 57.7 °F 29.86 in Calm   9.0 mph 35 % 0.00 in 128.00 W/m2
19:04 88.3 °F 58.0 °F 29.86 in South 7.0 mph 9.0 mph 36 % 0.00 in 114.00 W/m2
19:09 88.0 °F 57.7 °F 29.86 in South 2.0 mph 7.0 mph 36 % 0.00 in 100.00 W/m2
19:14 87.8 °F 57.5 °F 29.86 in South 1.0 mph 10.0 mph 36 % 0.00 in 84.00 W/m2
19:19 87.5 °F 58.0 °F 29.87 in South 4.0 mph 11.0 mph 37 % 0.00 in 74.00 W/m2
19:24 87.2 °F 57.8 °F 29.86 in Calm   11.0 mph 37 % 0.00 in 60.00 W/m2
19:29 87.0 °F 57.6 °F 29.86 in Calm   7.0 mph 37 % 0.00 in 49.00 W/m2
19:34 86.8 °F 58.2 °F 29.87 in Calm   8.0 mph 38 % 0.00 in 40.00 W/m2
19:39 86.6 °F 58.0 °F 29.87 in Calm   9.0 mph 38 % 0.00 in 33.00 W/m2
19:44 86.5 °F 57.2 °F 29.87 in South 4.0 mph 8.0 mph 37 % 0.00 in 26.00 W/m2
19:49 86.2 °F 56.9 °F 29.87 in South 6.0 mph 6.0 mph 37 % 0.00 in 21.00 W/m2
19:54 86.0 °F 56.0 °F 29.87 in Calm   6.0 mph 36 % 0.00 in 16.00 W/m2
19:59 85.7 °F 56.5 °F 29.87 in South 2.0 mph 6.0 mph 37 % 0.00 in 14.00 W/m2
20:04 85.4 °F 56.2 °F 29.87 in Calm   6.0 mph 37 % 0.00 in 11.00 W/m2
20:09 85.0 °F 55.8 °F 29.87 in SSE 4.0 mph 7.0 mph 37 % 0.00 in 7.00 W/m2
20:15 84.7 °F 56.3 °F 29.87 in SSE 5.0 mph 6.0 mph 38 % 0.00 in 5.00 W/m2
20:19 84.6 °F 56.2 °F 29.87 in South 6.0 mph 7.0 mph 38 % 0.00 in 0.00 W/m2
20:24 84.3 °F 56.0 °F 29.88 in Calm   8.0 mph 38 % 0.00 in 0.00 W/m2
20:26 84.2 °F 55.9 °F 29.88 in SSE 1.0 mph 2.0 mph 38 % 0.00 in 0.00 W/m2
20:30 84.0 °F 56.4 °F 29.88 in SSE 5.0 mph 7.0 mph 39 % 0.00 in 0.00 W/m2
20:31 84.0 °F 56.4 °F 29.88 in South 7.0 mph 8.0 mph 39 % 0.00 in 0.00 W/m2
20:36 83.7 °F 56.1 °F 29.88 in South 4.0 mph 7.0 mph 39 % 0.00 in 0.00 W/m2
20:41 83.4 °F 55.9 °F 29.88 in South 2.0 mph 7.0 mph 39 % 0.00 in 0.00 W/m2
20:46 83.1 °F 55.6 °F 29.89 in Calm     39 % 0.00 in 0.00 W/m2
20:51 82.9 °F 56.1 °F 29.89 in SSE 1.0 mph 2.0 mph 40 % 0.00 in 0.00 W/m2
20:56 82.7 °F 56.0 °F 29.89 in South 1.0 mph 1.0 mph 40 % 0.00 in 0.00 W/m2
21:01 82.5 °F 56.5 °F 29.89 in Calm   5.0 mph 41 % 0.00 in 0.00 W/m2
21:06 82.1 °F 56.1 °F 29.89 in Calm   7.0 mph 41 % 0.00 in 0.00 W/m2
21:11 81.9 °F 55.9 °F 29.89 in SSE 4.0 mph 4.0 mph 41 % 0.00 in 0.00 W/m2
21:16 81.6 °F 55.6 °F 29.89 in Calm   2.0 mph 41 % 0.00 in 0.00 W/m2
21:21 81.3 °F 56.0 °F 29.90 in SSE 5.0 mph 6.0 mph 42 % 0.00 in 0.00 W/m2
21:26 80.8 °F 56.2 °F 29.90 in SSE 1.0 mph 2.0 mph 43 % 0.00 in 0.00 W/m2
21:32 80.2 °F 56.3 °F 29.90 in Calm   4.0 mph 44 % 0.00 in 0.00 W/m2
21:37 79.6 °F 55.8 °F 29.91 in Calm     44 % 0.00 in 0.00 W/m2
21:42 79.2 °F 56.0 °F 29.91 in Calm     45 % 0.00 in 0.00 W/m2
21:47 78.9 °F 55.8 °F 29.91 in Calm     45 % 0.00 in 0.00 W/m2
21:52 78.8 °F 55.7 °F 29.91 in Calm   4.0 mph 45 % 0.00 in 0.00 W/m2
21:57 78.8 °F 55.1 °F 29.91 in SSE 5.0 mph 7.0 mph 44 % 0.00 in 0.00 W/m2
22:02 78.8 °F 55.1 °F 29.91 in SSE 1.0 mph 5.0 mph 44 % 0.00 in 0.00 W/m2
22:07 78.7 °F 55.0 °F 29.91 in SSE 1.0 mph 4.0 mph 44 % 0.00 in 0.00 W/m2
22:12 78.7 °F 54.3 °F 29.91 in Calm   4.0 mph 43 % 0.00 in 0.00 W/m2
22:17 78.6 °F 54.3 °F 29.91 in Calm   8.0 mph 43 % 0.00 in 0.00 W/m2
22:22 78.5 °F 54.2 °F 29.91 in SE 1.0 mph 4.0 mph 43 % 0.00 in 0.00 W/m2
22:27 78.4 °F 54.1 °F 29.90 in SE 2.0 mph 5.0 mph 43 % 0.00 in 0.00 W/m2
22:32 78.3 °F 54.0 °F 29.91 in SE 1.0 mph 4.0 mph 43 % 0.00 in 0.00 W/m2
22:37 78.3 °F 54.6 °F 29.91 in SE 4.0 mph 4.0 mph 44 % 0.00 in 0.00 W/m2
22:42 78.2 °F 53.9 °F 29.91 in SE 2.0 mph 2.0 mph 43 % 0.00 in 0.00 W/m2
22:47 78.2 °F 53.9 °F 29.91 in SE 4.0 mph 5.0 mph 43 % 0.00 in 0.00 W/m2
22:52 78.1 °F 53.8 °F 29.91 in SE 2.0 mph 6.0 mph 43 % 0.00 in 0.00 W/m2
22:57 78.1 °F 54.4 °F 29.90 in SE 6.0 mph 6.0 mph 44 % 0.00 in 0.00 W/m2
23:02 78.1 °F 54.4 °F 29.90 in SE 2.0 mph 4.0 mph 44 % 0.00 in 0.00 W/m2
23:07 78.1 °F 54.4 °F 29.90 in SE 8.0 mph 8.0 mph 44 % 0.00 in 0.00 W/m2
23:12 78.1 °F 54.4 °F 29.90 in SE 9.0 mph 9.0 mph 44 % 0.00 in 0.00 W/m2
23:17 78.1 °F 54.4 °F 29.90 in ESE 5.0 mph 11.0 mph 44 % 0.00 in 0.00 W/m2
23:22 78.0 °F 54.3 °F 29.89 in SE 4.0 mph 7.0 mph 44 % 0.00 in 0.00 W/m2
23:27 78.0 °F 54.3 °F 29.90 in SE 1.0 mph 7.0 mph 44 % 0.00 in 0.00 W/m2
23:32 78.0 °F 54.3 °F 29.90 in SE 1.0 mph 8.0 mph 44 % 0.00 in 0.00 W/m2
23:37 78.0 °F 54.3 °F 29.89 in SE 4.0 mph 7.0 mph 44 % 0.00 in 0.00 W/m2
23:42 78.0 °F 53.7 °F 29.89 in SE 2.0 mph 11.0 mph 43 % 0.00 in 0.00 W/m2
23:47 78.0 °F 53.7 °F 29.89 in ESE 2.0 mph 8.0 mph 43 % 0.00 in 0.00 W/m2
23:52 78.0 °F 54.3 °F 29.89 in SE 8.0 mph 8.0 mph 44 % 0.00 in 0.00 W/m2
23:57 78.0 °F 54.3 °F 29.89 in SE 5.0 mph 8.0 mph 44 % 0.00 in 0.00 W/m2
Juneau County Weather
Compliments of Weather Underground - 4.5 mb
 WU-history PHP script courtesy of   Juneau County Weather.
powered by Cumulus v1.9.3 (1059)
Ambient Weather VWS v14.00
Top Contact Website Map Copyright © 2007 - 2018 Foresthillweather.com Never base important decisions on this or any weather information obtained from the Internet